Location: Unspecified
(0.0000°N, 0.0000°E)
Time: 13:35:16
(UTC+00:00)

JUGNU - Pass Details

Date: 22 February 2020
Orbit: 836 x 864 km, 20.0° (Epoch: 01 April)

Event Time Altitude Azimuth Distance (km) Brightness Sun altitude
Rises 19:30:42 0° 289° (WNW) 3,372 ? -19.0°
Reaches altitude 10° 19:33:15 10° 288° (WNW) 2,436 ? -19.6°
Maximum altitude 19:39:06 81° 201° (SSW) 844 ? -21.0°
Enters shadow 19:41:34 37° 119° (ESE) 1,279 ? -21.6°
